Weather History for Bentonville, AR

Change the Weather History Date:

Friday, November 23, 2012

  Actual Average Record
Temperature  
Mean Temperature 42 °F -  
Max Temperature 55 °F 54 °F 73 °F (1983)
Min Temperature 30 °F 33 °F 17 °F (1975)
Degree Days  
Heating Degree Days 22    
Moisture  
Dew Point 24 °F    
Average Humidity 49    
Maximum Humidity 70    
Minimum Humidity 34    
Precipitation  
Precipitation 0.00 in - - ()
Sea Level Pressure  
Sea Level Pressure 30.36 in    
Wind  
Wind Speed 11 mph (NNW)    
Max Wind Speed 21 mph    
Max Gust Speed 29 mph    
Visibility 10 miles    
Events      
Averages and records for this station are not official NWS values.
T = Trace of Precipitation, MM = Missing Value Source: NWS Daily Summary

Daily Weather History Graph

Daily Weather History Graph

Search for Another Location

Airport:

Trip Planner

Search our weather history database for the weather conditions in past years. The results will help you decide how hot, cold, wet, or windy it might be!

Date:

Astronomy

Nov. 23, 2012 Rise Set
Actual Time 7:02 AM CST 5:03 PM CST
Civil Twilight 6:34 AM CST 5:31 PM CST
Nautical Twilight 6:03 AM CST 6:03 PM CST
Astronomical Twilight 5:32 AM CST 6:34 PM CST
Moon 2:13 PM CST (11/23) 2:29 AM CST (11/23)
Length of Visible Light 10h 57m
Length of Day
10h 01m
Waxing Gibbous, 80% of the Moon is Illuminated
Nov 23
Waxing Gibbous
Nov 28
Full
Dec 6
Last Quarter
Dec 13
New
Dec 19
First Quarter

Hourly Weather History & Observations

Time (CST) Temp. Windchill Dew Point Humidity Pressure Visibility Wind Dir Wind Speed Gust Speed Precip Events Conditions
12:55 AM 55.4 °F - 35.6 °F 47% 30.20 in 10.0 mi NNE 18.4 mph 28.8 mph N/A   Overcast
1:15 AM 53.6 °F - 33.8 °F 47% 30.22 in 10.0 mi NNE 20.7 mph 27.6 mph N/A   Mostly Cloudy
1:35 AM 53.6 °F - 26.6 °F 35% 30.23 in 10.0 mi North 13.8 mph 20.7 mph N/A   Mostly Cloudy
1:56 AM 51.8 °F - 28.4 °F 41% 30.24 in 10.0 mi NNE 16.1 mph 21.9 mph N/A   Scattered Clouds
2:15 AM 51.8 °F - 28.4 °F 41% 30.25 in 10.0 mi NNE 10.4 mph - N/A   Scattered Clouds
2:35 AM 51.8 °F - 28.4 °F 41% 30.26 in 10.0 mi North 12.7 mph - N/A   Scattered Clouds
2:56 AM 51.8 °F - 30.2 °F 44% 30.27 in 10.0 mi North 11.5 mph - N/A   Mostly Cloudy
3:15 AM 50.0 °F - 30.2 °F 47% 30.27 in 10.0 mi NNE 8.1 mph 20.7 mph N/A   Overcast
3:35 AM 48.2 °F - 30.2 °F 50% 30.28 in 10.0 mi North 9.2 mph - N/A   Mostly Cloudy
4:15 AM 46.4 °F 42.4 °F 28.4 °F 50% 30.29 in 10.0 mi North 8.1 mph - N/A   Clear
4:35 AM 46.4 °F 41.9 °F 28.4 °F 50% 30.30 in 10.0 mi North 9.2 mph - N/A   Clear
4:55 AM 46.4 °F 42.9 °F 28.4 °F 50% 30.31 in 10.0 mi North 6.9 mph - N/A   Clear
5:15 AM 44.6 °F 40.7 °F 30.2 °F 57% 30.32 in 10.0 mi North 6.9 mph - N/A   Clear
5:35 AM 44.6 °F 42.2 °F 30.2 °F 57% 30.32 in 10.0 mi North 4.6 mph - N/A   Clear
5:55 AM 42.8 °F 41.1 °F 30.2 °F 61% 30.32 in 10.0 mi NNW 3.5 mph - N/A   Clear
6:16 AM 42.8 °F 41.1 °F 30.2 °F 61% 30.33 in 10.0 mi NNW 3.5 mph - N/A   Clear
6:35 AM 39.2 °F 37.0 °F 30.2 °F 70% 30.34 in 10.0 mi NW 3.5 mph - N/A   Clear
6:55 AM 41.0 °F 38.0 °F 30.2 °F 65% 30.35 in 10.0 mi NW 4.6 mph - N/A   Clear
7:15 AM 39.2 °F 35.0 °F 28.4 °F 65% 30.36 in 10.0 mi NW 5.8 mph - N/A   Clear
7:35 AM 39.2 °F 35.9 °F 30.2 °F 70% 30.36 in 10.0 mi WNW 4.6 mph - N/A   Clear
7:55 AM 42.8 °F 39.3 °F 30.2 °F 61% 30.37 in 10.0 mi NW 5.8 mph - N/A   Clear
8:16 AM 42.8 °F 38.6 °F 32.0 °F 66% 30.38 in 10.0 mi NW 6.9 mph - N/A   Clear
8:35 AM 44.6 °F 39.2 °F 32.0 °F 61% 30.38 in 10.0 mi NNW 10.4 mph 16.1 mph N/A   Clear
8:55 AM 44.6 °F 37.4 °F 30.2 °F 57% 30.39 in 10.0 mi NNW 16.1 mph 20.7 mph N/A   Clear
9:35 AM 44.6 °F 37.2 °F 24.8 °F 46% 30.40 in 10.0 mi NNW 17.3 mph 23.0 mph N/A   Clear
9:55 AM 44.6 °F 37.2 °F 21.2 °F 39% 30.41 in 10.0 mi NNW 17.3 mph 25.3 mph N/A   Clear
10:35 AM 44.6 °F 38.8 °F 24.8 °F 46% 30.42 in 10.0 mi NNW 11.5 mph 17.3 mph N/A   Clear
10:55 AM 46.4 °F 41.1 °F 24.8 °F 43% 30.42 in 10.0 mi NNW 11.5 mph 19.6 mph N/A   Clear
11:35 AM 44.6 °F 37.4 °F 17.6 °F 34% 30.42 in 10.0 mi NW 16.1 mph 23.0 mph N/A   Clear
11:55 AM 44.6 °F 38.8 °F 19.4 °F 37% 30.42 in 10.0 mi NNW 11.5 mph 18.4 mph N/A   Clear
12:35 PM 44.6 °F 37.4 °F 19.4 °F 37% 30.41 in 10.0 mi NW 16.1 mph 21.9 mph N/A   Clear
12:55 PM 44.6 °F 38.8 °F 19.4 °F 37% 30.40 in 10.0 mi NNW 11.5 mph 21.9 mph N/A   Clear
1:35 PM 42.8 °F 36.6 °F 17.6 °F 36% 30.40 in 10.0 mi NW 11.5 mph 20.7 mph N/A   Clear
2:15 PM 44.6 °F 37.8 °F 19.4 °F 37% 30.39 in 10.0 mi NW 15.0 mph 18.4 mph N/A   Clear
2:35 PM 44.6 °F 37.8 °F 19.4 °F 37% 30.39 in 10.0 mi NNW 15.0 mph 21.9 mph N/A   Clear
2:55 PM 44.6 °F 39.7 °F 17.6 °F 34% 30.40 in 10.0 mi NNW 9.2 mph 17.3 mph N/A   Clear
3:15 PM 44.6 °F 38.8 °F 19.4 °F 37% 30.40 in 10.0 mi NNW 11.5 mph 17.3 mph N/A   Clear
3:35 PM 42.8 °F 37.0 °F 17.6 °F 36% 30.40 in 10.0 mi NNW 10.4 mph - N/A   Clear
3:55 PM 42.8 °F 35.8 °F 17.6 °F 36% 30.40 in 10.0 mi NNW 13.8 mph 18.4 mph N/A   Clear
4:15 PM 42.8 °F 37.5 °F 17.6 °F 36% 30.40 in 10.0 mi NW 9.2 mph - N/A   Clear
4:36 PM 41.0 °F 35.2 °F 19.4 °F 42% 30.40 in 10.0 mi NW 9.2 mph - N/A   Clear
4:55 PM 41.0 °F 34.7 °F 17.6 °F 39% 30.40 in 10.0 mi NNW 10.4 mph - N/A   Clear
5:15 PM 39.2 °F 32.5 °F 19.4 °F 45% 30.40 in 10.0 mi NW 10.4 mph - N/A   Clear
5:35 PM 37.4 °F 32.8 °F 19.4 °F 48% 30.40 in 10.0 mi NW 5.8 mph - N/A   Clear
5:55 PM 37.4 °F 32.8 °F 19.4 °F 48% 30.40 in 10.0 mi NNW 5.8 mph - N/A   Clear
6:15 PM 37.4 °F 33.8 °F 19.4 °F 48% 30.40 in 10.0 mi NW 4.6 mph - N/A   Clear
6:35 PM 37.4 °F 33.8 °F 19.4 °F 48% 30.41 in 10.0 mi NNW 4.6 mph - N/A   Clear
6:55 PM 35.6 °F 31.7 °F 19.4 °F 52% 30.40 in 10.0 mi NW 4.6 mph - N/A   Clear
7:35 PM 35.6 °F 30.7 °F 19.4 °F 52% 30.41 in 10.0 mi NNW 5.8 mph - N/A   Clear
7:55 PM 35.6 °F 32.8 °F 19.4 °F 52% 30.41 in 10.0 mi NW 3.5 mph - N/A   Clear
8:15 PM 35.6 °F 32.8 °F 19.4 °F 52% 30.40 in 10.0 mi NNW 3.5 mph - N/A   Clear
8:35 PM 33.8 °F - 19.4 °F 56% 30.40 in 10.0 mi Calm Calm - N/A   Clear
8:55 PM 33.8 °F - 19.4 °F 56% 30.41 in 10.0 mi Calm Calm - N/A   Clear
9:15 PM 33.8 °F 30.8 °F 19.4 °F 56% 30.41 in 10.0 mi NW 3.5 mph - N/A   Clear
9:36 PM 32.0 °F - 19.4 °F 60% 30.41 in 10.0 mi Calm Calm - N/A   Clear
9:55 PM 32.0 °F 28.7 °F 19.4 °F 60% 30.41 in 10.0 mi NW 3.5 mph - N/A   Clear
10:55 PM 32.0 °F 28.7 °F 19.4 °F 60% 30.40 in 10.0 mi NNW 3.5 mph - N/A   Clear
11:15 PM 32.0 °F 27.5 °F 17.6 °F 55% 30.40 in 10.0 mi NNW 4.6 mph - N/A   Clear
11:35 PM 30.2 °F 26.7 °F 17.6 °F 60% 30.40 in 10.0 mi North 3.5 mph - N/A   Clear
11:55 PM 30.2 °F 26.7 °F 17.6 °F 60% 30.40 in 10.0 mi NNW 3.5 mph - N/A   Clear